TimeEDT,TemperatureF,Dew PointF,Humidity,Sea Level PressureIn,VisibilityMPH,Wind Direction,Wind SpeedMPH,Gust SpeedMPH,PrecipitationIn,Events,Conditions,WindDirDegrees,DateUTC
12:53 AM,69.1,55.0,61,30.22,10.0,South,5.8,-,N/A,,Clear,170,2013-05-15 04:53:00
1:53 AM,63.0,55.0,75,30.20,10.0,WSW,5.8,-,N/A,,Clear,240,2013-05-15 05:53:00
2:53 AM,62.1,55.0,78,30.18,10.0,SW,4.6,-,N/A,,Clear,230,2013-05-15 06:53:00
3:53 AM,61.0,55.0,81,30.17,10.0,WSW,4.6,-,N/A,,Clear,240,2013-05-15 07:53:00
4:53 AM,59.0,54.0,83,30.18,10.0,WSW,6.9,-,N/A,,Clear,250,2013-05-15 08:53:00
5:53 AM,59.0,53.1,81,30.19,10.0,WSW,5.8,-,N/A,,Clear,250,2013-05-15 09:53:00
6:53 AM,60.1,53.1,78,30.21,10.0,SW,4.6,-,N/A,,Clear,230,2013-05-15 10:53:00
7:53 AM,62.1,53.1,72,30.22,10.0,Calm,Calm,-,N/A,,Clear,0,2013-05-15 11:53:00
8:24 AM,64.4,55.4,73,30.24,10.0,Calm,Calm,-,N/A,,Partly Cloudy,0,2013-05-15 12:24:00
8:53 AM,66.9,57.0,70,30.23,10.0,WSW,3.5,-,N/A,,Clear,250,2013-05-15 12:53:00
9:53 AM,73.0,54.0,51,30.24,10.0,WSW,9.2,-,N/A,,Clear,240,2013-05-15 13:53:00
10:53 AM,75.9,48.9,38,30.23,10.0,Variable,4.6,-,N/A,,Partly Cloudy,0,2013-05-15 14:53:00
11:53 AM,77.0,52.0,42,30.22,10.0,ESE,6.9,-,N/A,,Partly Cloudy,110,2013-05-15 15:53:00
12:53 PM,79.0,48.9,35,30.22,10.0,ESE,6.9,-,N/A,,Partly Cloudy,120,2013-05-15 16:53:00
1:53 PM,81.0,48.9,33,30.19,10.0,SE,6.9,-,N/A,,Scattered Clouds,130,2013-05-15 17:53:00
2:53 PM,82.9,48.9,31,30.16,10.0,NNE,5.8,-,N/A,,Scattered Clouds,30,2013-05-15 18:53:00
3:53 PM,82.9,48.0,29,30.13,10.0,SSW,6.9,-,N/A,,Partly Cloudy,210,2013-05-15 19:53:00
4:53 PM,82.9,48.0,29,30.11,10.0,SSE,8.1,-,N/A,,Partly Cloudy,160,2013-05-15 20:53:00
5:53 PM,82.9,52.0,34,30.10,10.0,ESE,12.7,-,N/A,,Scattered Clouds,120,2013-05-15 21:53:00
6:53 PM,82.0,50.0,33,30.09,10.0,SSE,12.7,-,N/A,,Scattered Clouds,150,2013-05-15 22:53:00
7:53 PM,79.0,51.1,38,30.09,10.0,SE,11.5,-,N/A,,Mostly Cloudy,140,2013-05-15 23:53:00
8:53 PM,75.9,53.1,45,30.10,10.0,SE,10.4,-,N/A,,Mostly Cloudy,130,2013-05-16 00:53:00
9:53 PM,73.0,57.0,57,30.11,10.0,SSE,11.5,-,N/A,,Mostly Cloudy,150,2013-05-16 01:53:00
10:53 PM,72.0,59.0,64,30.11,10.0,South,11.5,-,N/A,,Mostly Cloudy,170,2013-05-16 02:53:00
11:53 PM,71.1,59.0,66,30.10,10.0,South,11.5,-,N/A,,Mostly Cloudy,170,2013-05-16 03:53:00